[[{"header":{"parameterUnit":"m.s-1","parameterCategory":1,"la1":30.2991,"la2":30.254,"lo1":-89.0895,"lo2":-89.0444,"dy":0.0017,"dx":0.0017,"nx":28,"ny":28,"refTime":"2023-10-03T09:00:00:Z","depth":0,"parameterNumber":2,"parameterNumberName":"U-component_of_WINDS"},"data":[0,0,0,0,0,0,0,0,0,0,0,0,0,0,0,0,0,0,0,0,0,0,0,0,0,0,0,0,0,0,0,0,0,0,0,0,0,0,0,0,0,0,0,0,0,0,0,0,0,0,0,0,0,0,0,0,0,0,-2.666,-2.6659,0,-2.6595,-2.6594,-2.6594,-2.6418,-2.6414,-2.6411,-2.6407,-2.6347,-2.6348,-2.635,0,0,0,0,0,0,0,0,0,0,0,0,0,-2.6637,-2.6638,-2.666,-2.6659,-2.6658,-2.6595,-2.6594,-2.6593,-2.6419,-2.6414,-2.641,-2.6405,-2.6346,-2.6348,-2.6351,0,0,0,0,0,0,0,0,0,0,0,0,0,-2.6617,-2.6639,-2.666,-2.6563,-2.6554,-2.6595,-2.6594,-2.6593,-2.642,-2.6414,-2.6409,-2.6403,-2.6345,-2.6348,-2.6351,-2.6482,0,0,-2.636,-2.6361,0,0,0,0,0,0,0,0,-2.6619,-2.6618,-2.6578,-2.657,-2.656,-2.6509,-2.6564,-2.6556,-2.6421,-2.6471,-2.6407,-2.64,-2.6406,-2.6403,-2.6404,-2.648,-2.6477,-2.636,-2.6362,-2.6363,-2.6364,0,0,0,0,0,0,0,-2.662,-2.662,-2.6634,-2.6578,-2.6567,-2.6525,-2.6516,-2.6562,-2.6471,-2.6466,-2.6453,-2.6448,-2.6399,-2.6401,-2.6401,-2.6476,-2.636,-2.6362,-2.6364,-2.6365,-2.6657,-2.6663,0,0,0,0,0,0,-2.6635,-2.6622,-2.6636,-2.6632,-2.6576,-2.653,-2.652,-2.6531,-2.647,-2.6455,-2.6453,-2.644,-2.6399,-2.6398,-2.6398,-2.6549,-2.6363,-2.6366,-2.6367,-2.6651,-2.6659,-2.6665,0,0,0,0,0,0,-2.6635,-2.6638,-2.6639,-2.6624,-2.6621,-2.6536,-2.6551,-2.6533,-2.6534,-2.646,-2.6443,-2.6471,-2.6395,-2.6394,-2.6462,-2.6544,-2.6367,-2.6369,-2.6644,-2.6653,-2.6662,-2.6852,0,0,0,0,0,0,-2.6635,-2.6639,-2.6687,-2.6626,-2.6622,-2.6704,-2.6555,-2.6536,-2.6539,-2.6522,-2.6473,-2.6459,-2.639,-2.6459,-2.6465,-2.6545,-2.6372,-2.6636,-2.6648,-2.6659,-2.6838,-2.6866,-2.6891,0,0,0,0,0,-2.6635,-2.6744,-2.669,-2.6693,-2.6681,-2.6709,-2.6707,-2.6624,-2.6546,-2.6595,-2.6547,-2.6461,-2.6534,-2.6468,-2.6473,-2.6555,-2.6631,-2.6645,-2.6658,-2.6826,-2.6861,-2.689,0,0,0,0,0,0,-2.6819,-2.6735,-2.6674,-2.6766,-2.6746,-2.6679,-2.6738,-2.6663,-2.6665,-2.6649,-2.6547,-2.6538,-2.6621,-2.6594,-2.6522,-2.6679,-2.6568,-2.6584,-2.6694,-2.6726,-2.6752,-2.6758,-2.6374,0,0,0,0,0,-2.687,-2.6899,-2.6823,-2.6913,-2.6905,-2.6824,-2.6833,-2.677,-2.6746,-2.6737,-2.6694,-2.6675,-2.6693,-2.6708,-2.6721,-2.6832,-2.682,-2.6891,-2.6918,-2.6939,-2.6955,-2.7013,-2.7045,-2.671,-2.6709,-2.6709,0,0,-2.6977,-2.6934,-2.6959,-2.6949,-2.6925,-2.6959,-2.6818,-2.6859,-2.6883,-2.6743,-2.6805,-2.6773,-2.6745,-2.6836,-2.6874,-2.6817,-2.7044,-2.6957,-2.6975,-2.6978,-2.7031,-2.7063,-2.7091,-2.6719,-2.6717,-2.6716,0,0,-2.7189,-2.7158,-2.7229,-2.7208,-2.7174,-2.7119,-2.7136,-2.708,-2.7053,-2.7113,-2.7009,-2.7037,-2.707,-2.7055,-2.7052,-2.7256,-2.7178,-2.7263,-2.7402,-2.746,-2.7487,-2.751,-2.7585,-2.7613,-2.7278,-2.7279,-2.7279,0,-2.7327,-2.7371,-2.7276,-2.7324,-2.7323,-2.7195,-2.7268,-2.7252,-2.7226,-2.7229,-2.7164,-2.7203,-2.7176,-2.7262,-2.7312,-2.7312,-2.7331,-2.727,-2.749,-2.7512,-2.7532,-2.7603,-2.7631,-2.729,-2.7288,-2.7287,-2.7286,0,-2.7543,-2.7575,-2.7637,-2.7612,-2.7618,-2.7678,-2.7594,-2.7611,-2.7548,-2.75,-2.7564,-2.7525,-2.7528,-2.7543,-2.7483,-2.7622,-2.7587,-2.7508,-2.7395,-2.7577,-2.7642,-2.7668,-2.7305,-2.7301,-2.7298,-2.7295,0,0,-2.7872,-2.7792,-2.7816,-2.7803,-2.7755,-2.7779,-2.7834,-2.7835,-2.7853,-2.7838,-2.7883,-2.7914,-2.784,-2.7836,-2.7772,-2.7823,-2.799,-2.7737,-2.7735,-2.7788,-2.8143,-2.8205,-2.8238,-2.7936,-2.7941,-2.7945,-2.8146,0,-2.8073,-2.816,-2.8076,-2.8181,-2.821,-2.8089,-2.8136,-2.8113,-2.807,-2.809,-2.8042,-2.8066,-2.7966,-2.7963,-2.8007,-2.796,-2.806,-2.7944,-2.798,-2.7982,-2.7993,-2.8271,-2.8337,-2.8529,-2.8171,-2.8175,-2.8178,0,-2.8321,-2.8315,-2.8423,-2.8367,-2.8376,-2.8421,-2.8415,-2.8435,-2.8406,-2.8371,-2.8367,-2.8288,-2.834,-2.8227,-2.8298,-2.8221,-2.823,-2.8209,-2.8214,-2.8217,-2.8093,-2.8284,-2.8588,-2.8618,-2.8216,-2.8213,-2.821,0,-2.8553,-2.8572,-2.8638,-2.8631,-2.8568,-2.8602,-2.8577,-2.8543,-2.8549,-2.8544,-2.8547,-2.855,-2.8552,-2.8557,-2.8482,-2.8406,-2.8563,-2.8443,-2.8537,-2.854,-2.8578,-2.8578,-2.8891,-2.858,-2.858,-2.8579,-2.8579,0,-2.8788,-2.8859,-2.8742,-2.8784,-2.886,-2.8762,-2.8841,-2.8804,-2.8774,-2.8808,-2.8703,-2.8737,-2.8634,-2.8658,-2.86,-2.8668,-2.8669,-2.8644,-2.8629,-2.8655,-2.8659,-2.8662,-2.8648,-2.8587,-2.8585,-2.8584,-2.8583,0,-2.9062,-2.8985,-2.905,-2.8984,-2.8969,-2.9029,-2.8973,-2.9009,-2.8958,-2.9002,-2.9007,-2.8927,-2.895,-2.8874,-2.8885,-2.8846,-2.8947,-2.8908,-2.8957,-2.8946,-2.9045,-2.9038,-2.9374,-2.9414,-2.9076,-2.9079,-2.9082,0,-2.9218,-2.927,-2.9208,-2.9222,-2.9202,-2.9226,-2.9231,-2.9137,-2.9147,-2.9118,-2.9159,-2.9172,-2.9178,-2.9221,-2.9165,-2.9174,-2.9135,-2.9252,-2.9136,-2.9162,-2.914,-2.9139,-2.9145,-2.9278,-2.9282,-2.9286,-2.9288,0,-2.9505,-2.9464,-2.9474,-2.9472,-2.948,-2.9474,-2.9461,-2.9479,-2.9378,-2.9395,-2.9415,-2.942,-2.943,-2.9446,-2.9442,-2.9418,-2.9339,-2.9325,-2.9347,-2.9377,-2.9404,-2.9393,-2.9026,-2.9318,-2.9315,-2.9313,-2.9311,-2.931,-2.9726,-2.9766,-2.9729,-2.9744,-2.9724,-2.9714,-2.9745,-2.9697,-2.9711,-2.9711,-2.9655,-2.9688,-2.9658,-2.9644,-2.9628,-2.9654,-2.96,-2.9632,-2.9641,-2.9651,-2.9669,-2.9398,-2.9653,-2.9652,-2.9651,-2.965,-2.9649,0,-3.0009,-2.9979,-2.9993,-2.9977,-2.999,-2.9909,-2.989,-2.9907,-2.9936,-2.9914,-2.9921,-2.9946,-2.996,-2.9906,-2.9913,-2.9944,-2.9908,-2.9949,-2.9948,-2.9944,-2.9716,-2.9697,-2.9979,-2.9979,-2.9979,-2.9979,-2.9979,-2.9979,-3.0159,-3.0223,-3.0178,-3.0232,-3.02,-3.023,-3.0226,-3.0217,-3.0199,-3.0231,-3.0241,-3.0204,-3.017,-3.0173,-3.0184,-3.0167,-3.0176,-3.0232,-3.0203,-2.9992,-2.996,-2.993,-2.9911,-3.0234,-3.0234,-3.0429,-3.0431,-3.0433]},{"header":{"parameterUnit":"m.s-1","parameterCategory":1,"la1":30.2991,"la2":30.254,"lo1":-89.0895,"lo2":-89.0444,"dy":0.0017,"dx":0.0017,"nx":28,"ny":28,"refTime":"2023-10-03T09:00:00:Z","depth":0,"parameterNumber":3,"parameterNumberName":"V-component_of_WINDS"},"data":[0,0,0,0,0,0,0,0,0,0,0,0,0,0,0,0,0,0,0,0,0,0,0,0,0,0,0,0,0,0,0,0,0,0,0,0,0,0,0,0,0,0,0,0,0,0,0,0,0,0,0,0,0,0,0,0,0,0,-2.3802,-2.3804,0,-2.3999,-2.4001,-2.4004,-2.4118,-2.4119,-2.4119,-2.412,-2.4317,-2.4321,-2.4326,0,0,0,0,0,0,0,0,0,0,0,0,0,-2.352,-2.3525,-2.3802,-2.3804,-2.3807,-2.3999,-2.4001,-2.4004,-2.4118,-2.4119,-2.412,-2.412,-2.4315,-2.4321,-2.4326,0,0,0,0,0,0,0,0,0,0,0,0,0,-2.3672,-2.3526,-2.3801,-2.3887,-2.3897,-2.3998,-2.4002,-2.4005,-2.4118,-2.4119,-2.412,-2.412,-2.4313,-2.432,-2.4327,-2.4357,0,0,-2.4349,-2.4352,0,0,0,0,0,0,0,0,-2.3663,-2.3682,-2.3872,-2.3881,-2.3892,-2.4035,-2.3975,-2.4123,-2.4118,-2.4034,-2.412,-2.4121,-2.4222,-2.4237,-2.4272,-2.4367,-2.4375,-2.435,-2.4354,-2.4357,-2.4359,0,0,0,0,0,0,0,-2.3653,-2.3675,-2.388,-2.3874,-2.3887,-2.3914,-2.3937,-2.4003,-2.4121,-2.4041,-2.405,-2.4072,-2.4228,-2.4265,-2.4277,-2.4378,-2.435,-2.4356,-2.4361,-2.4363,-2.4508,-2.4507,0,0,0,0,0,0,-2.3629,-2.3665,-2.3874,-2.3886,-2.3777,-2.3919,-2.3944,-2.3988,-2.4121,-2.4142,-2.4071,-2.4077,-2.4252,-2.4269,-2.4285,-2.4329,-2.4357,-2.4364,-2.4368,-2.4508,-2.4508,-2.4507,0,0,0,0,0,0,-2.3623,-2.3647,-2.3866,-2.3778,-2.3808,-2.3923,-2.3972,-2.3992,-2.4029,-2.4144,-2.4165,-2.4088,-2.4253,-2.4275,-2.4339,-2.4337,-2.4367,-2.4374,-2.4509,-2.4508,-2.4508,-2.4417,0,0,0,0,0,0,-2.3614,-2.3644,-2.3657,-2.3777,-2.3812,-2.3917,-2.3972,-2.3995,-2.4042,-2.4051,-2.4165,-2.4184,-2.4256,-2.4328,-2.4346,-2.4348,-2.4379,-2.451,-2.4509,-2.4508,-2.4421,-2.4413,-2.4407,0,0,0,0,0,-2.3604,-2.3622,-2.3657,-2.3682,-2.3832,-2.3917,-2.3937,-2.402,-2.4041,-2.4055,-2.4129,-2.4181,-2.4335,-2.4333,-2.4355,-2.4359,-2.451,-2.4509,-2.4508,-2.4424,-2.4415,-2.4407,0,0,0,0,0,0,-2.3497,-2.364,-2.368,-2.3738,-2.3815,-2.3936,-2.3956,-2.4007,-2.4078,-2.4083,-2.4182,-2.4207,-2.4261,-2.4317,-2.4312,-2.4395,-2.4428,-2.4431,-2.4357,-2.4349,-2.4343,-2.4327,-2.4385,0,0,0,0,0,-2.348,-2.3539,-2.3661,-2.37,-2.3737,-2.384,-2.388,-2.3938,-2.402,-2.4052,-2.4131,-2.4208,-2.4274,-2.4315,-2.4382,-2.443,-2.4456,-2.4443,-2.4437,-2.443,-2.4431,-2.4461,-2.4457,-2.4504,-2.4504,-2.4504,0,0,-2.3446,-2.3532,-2.3562,-2.3681,-2.3747,-2.3805,-2.3866,-2.3924,-2.3967,-2.4061,-2.4127,-2.4187,-2.4279,-2.4335,-2.4364,-2.4384,-2.4425,-2.4429,-2.4423,-2.4428,-2.4459,-2.4455,-2.4451,-2.4503,-2.4503,-2.4503,0,0,-2.3413,-2.3484,-2.3526,-2.3591,-2.3691,-2.376,-2.3769,-2.3884,-2.3928,-2.3996,-2.4068,-2.412,-2.4232,-2.4295,-2.4341,-2.4334,-2.4384,-2.4353,-2.4317,-2.4344,-2.4341,-2.4338,-2.4334,-2.4332,-2.4354,-2.4354,-2.4354,0,-2.3357,-2.3448,-2.354,-2.3594,-2.3644,-2.3734,-2.3776,-2.3834,-2.395,-2.3982,-2.4003,-2.4146,-2.4214,-2.4286,-2.4285,-2.432,-2.4333,-2.434,-2.4334,-2.4332,-2.4331,-2.4329,-2.4327,-2.4349,-2.435,-2.435,-2.4351,0,-2.3375,-2.3437,-2.3458,-2.3569,-2.3622,-2.3669,-2.3767,-2.3809,-2.3862,-2.3928,-2.3997,-2.4082,-2.4168,-2.419,-2.4242,-2.427,-2.4279,-2.4316,-2.435,-2.432,-2.432,-2.432,-2.4343,-2.4345,-2.4346,-2.4347,0,0,-2.3277,-2.3441,-2.3447,-2.3499,-2.3617,-2.3666,-2.3718,-2.3804,-2.3838,-2.3915,-2.396,-2.4054,-2.4089,-2.4141,-2.4202,-2.4226,-2.4214,-2.426,-2.4264,-2.4247,-2.425,-2.422,-2.4218,-2.4249,-2.4249,-2.4249,-2.4242,0,-2.3261,-2.3359,-2.3444,-2.3511,-2.3569,-2.3656,-2.3701,-2.3778,-2.3841,-2.3899,-2.3969,-2.4033,-2.4075,-2.4107,-2.4136,-2.4209,-2.4216,-2.4212,-2.429,-2.4292,-2.4263,-2.4218,-2.4187,-2.4175,-2.4242,-2.4242,-2.4242,0,-2.3253,-2.3329,-2.3402,-2.3516,-2.3543,-2.3582,-2.3669,-2.3723,-2.3812,-2.3856,-2.3916,-2.398,-2.4037,-2.4068,-2.4148,-2.4143,-2.4181,-2.4222,-2.4224,-2.4233,-2.4264,-2.4224,-2.4173,-2.417,-2.4243,-2.4243,-2.4243,0,-2.3173,-2.3294,-2.3354,-2.3396,-2.3529,-2.3555,-2.3611,-2.3701,-2.3748,-2.3823,-2.3854,-2.3934,-2.3978,-2.4038,-2.4121,-2.4136,-2.4193,-2.423,-2.423,-2.4227,-2.4236,-2.4234,-2.4189,-2.4263,-2.4263,-2.4263,-2.4263,0,-2.3145,-2.3185,-2.332,-2.3356,-2.3405,-2.3502,-2.3546,-2.3611,-2.369,-2.3739,-2.382,-2.3864,-2.3973,-2.403,-2.4096,-2.4152,-2.4171,-2.4208,-2.4224,-2.42,-2.4194,-2.4224,-2.4226,-2.4262,-2.4262,-2.4262,-2.4262,0,-2.3062,-2.3154,-2.3225,-2.3347,-2.3378,-2.3408,-2.3512,-2.355,-2.362,-2.3681,-2.3701,-2.3809,-2.3881,-2.3971,-2.4071,-2.4115,-2.4164,-2.419,-2.4134,-2.4143,-2.4138,-2.4136,-2.4108,-2.4109,-2.4183,-2.4182,-2.4181,0,-2.3037,-2.3071,-2.3197,-2.3237,-2.3292,-2.3355,-2.3404,-2.3501,-2.3548,-2.3653,-2.3678,-2.3757,-2.3824,-2.3935,-2.4021,-2.4098,-2.4126,-2.4111,-2.4138,-2.4112,-2.4124,-2.412,-2.4124,-2.4103,-2.4102,-2.4101,-2.41,0,-2.2981,-2.3026,-2.3094,-2.3178,-2.3235,-2.3305,-2.3379,-2.3407,-2.3519,-2.3568,-2.3644,-2.3696,-2.38,-2.3876,-2.3965,-2.4022,-2.4079,-2.4091,-2.4095,-2.4069,-2.4034,-2.4052,-2.4113,-2.4091,-2.4092,-2.4092,-2.4093,-2.4093,-2.2926,-2.296,-2.3055,-2.3128,-2.3195,-2.3262,-2.3305,-2.338,-2.3445,-2.3538,-2.3592,-2.3665,-2.3754,-2.388,-2.3935,-2.3993,-2.4014,-2.402,-2.4021,-2.402,-2.4012,-2.4027,-2.401,-2.401,-2.401,-2.4011,-2.4011,0,-2.2873,-2.2939,-2.3006,-2.3108,-2.3166,-2.3218,-2.3302,-2.3346,-2.3411,-2.349,-2.3556,-2.3643,-2.3718,-2.3811,-2.3893,-2.3921,-2.3949,-2.3939,-2.3937,-2.3949,-2.3989,-2.3977,-2.3915,-2.3915,-2.3915,-2.3915,-2.3915,-2.3915,-2.2852,-2.2913,-2.2969,-2.3064,-2.313,-2.3203,-2.3247,-2.331,-2.3374,-2.3468,-2.3532,-2.3593,-2.3678,-2.3766,-2.3837,-2.3863,-2.3888,-2.387,-2.3903,-2.3938,-2.3946,-2.3954,-2.3943,-2.3875,-2.3875,-2.3858,-2.3858,-2.3857]}]]